User: anonymous   Login
Location: Unspecified
(0.0000°N, 0.0000°E)
Time: 12:31:31
(UTC+02:00)
Language:

Gbstr 26 Del rocket - Orbit

View from above orbital plane
View from above orbital plane
View from above satellite
View from above satellite

Ground track
Ground track

The orbit data is extracted from the following two-line orbital elements,

1 25876U 99041E   17178.80371815 -.00000183 +00000-0 +11029-4 0  9998
2 25876 051.7639 274.9841 0532150 059.0026 306.2059 14.04061289916099
Epoch (UTC): 27 June 2017 19:17:21
Eccentricity: 0.0532150
inclination: 51.7639°
perigee height: 493 km
apogee height: 1266 km
right ascension of ascending node: 274.9841°
argument of perigee: 59.0026°
revolutions per day: 14.04061289
mean anomaly at epoch: 306.2059°
orbit number at epoch: 91609

The dashed part of the orbit path shows where the satellite is in the earth's shadow,  

DLR